Regional Weather Roundup
Issued by NWS Mt. Holly, NJ

Home | Current Version | Previous Version | Text Only | Print | Product List | Glossary On
Versions: 1 2 3 4 5 6 7 8 9 10 11 12 13 14 15 16 17 18 19 20 21 22 23 24 25 26 27 28 29 30 31 32 33 34 35 36 37 38 39 40 41 42 43 44 45 46 47 48 49 50
000
ASUS41 KPHI 241811
RWRPHI

REGIONAL WEATHER ROUNDUP
NATIONAL WEATHER SERVICE MOUNT HOLLY NJ
200 PM EDT SUN MAY 24 2015

NOTE:  "FAIR" INDICATES FEW OR NO CLOUDS BELOW 12,000 FEET WITH NO
SIGNIFICANT WEATHER AND/OR OBSTRUCTIONS TO VISIBILITY.

 * = STATION DOES NOT REPORT PRECIPITATION (E.G. RAIN, SNOW, ETC.)
        OR FOG.

NJZ015>026-241900-
SOUTHERN NEW JERSEY

CITY           SKY/WX    TMP DP  RH WIND       PRES   REMARKS
POMONA         MOSUNNY   75  51  43 S17G26    30.33F
6HR MIN TEMP:  58; 6HR MAX TEMP:  76;

RIO GRANDE*    SUNNY     73  46  38 S14       30.37S
MILLVILLE      MOSUNNY   75  56  51 SW8       30.34F
WRIGHTSTOWN    MOSUNNY   78  52  39 SW12G23   30.28F
MOUNT HOLLY    MOSUNNY   77  53  43 VRB7      30.30F
TRENTON        SUNNY     79  48  33 SW10G17   30.30F
6HR MIN TEMP:  56; 6HR MAX TEMP:  79;


$$
NJZ001>014-241900-
NORTHERN NEW JERSEY

CITY           SKY/WX    TMP DP  RH WIND       PRES   REMARKS
SUSSEX         MOSUNNY   78  38  23 VRB7      30.28F
ANDOVER*         N/A     78  40  25 SW7       30.28F
MORRISTOWN     PTSUNNY   81  39  22 W5G20     30.28F
NEWARK         PTSUNNY   82  39  21 W9        30.28F
TETERBORO      MOSUNNY   79  40  24 S12G18    30.26F
CALDWELL       MOSUNNY   79  36  21 NW8       30.28F
SOMERVILLE     SUNNY     80  40  23 VRB3      30.26F
ALLAIRE*       MOSUNNY   79  50  36 W8G16     30.30F
TOMS RIVER*    PTSUNNY  N/A N/A N/A W13G20    30.30F

$$
PAZ043-044-047-054-055-060>062-066>071-241900-
EASTERN PENNSYLVANIA

CITY           SKY/WX    TMP DP  RH WIND       PRES   REMARKS
PHILADELPHIA   PTSUNNY   77  51  40 SW13      30.32F
6HR MIN TEMP:  59; 6HR MAX TEMP:  77;

NORTH PHILA    MOSUNNY   79  46  31 SW12G17   30.32F
BLUE BELL      MOSUNNY   81  46  30 SW5       30.30F
DOYLESTOWN     SUNNY     77  39  25 VRB6      30.29F
QUAKERTOWN*    SUNNY     77  37  24 SW9       30.31F
POTTSTOWN      MOSUNNY   78  39  24 VRB7      30.32F
LANCASTER      MOSUNNY   77  41  27 NW6       30.31F
COATESVILLE    MOSUNNY   75  46  35 W6        30.33F
READING        MOSUNNY   79  41  25 SW6       30.29F
6HR MIN TEMP:  56; 6HR MAX TEMP:  79;

ALLENTOWN      MOSUNNY   80  38  22 SW14      30.29F
6HR MIN TEMP:  54; 6HR MAX TEMP:  81;

MOUNT POCONO   SUNNY     73  32  22 NW10G20   30.32F
6HR MIN TEMP:  56; 6HR MAX TEMP:  74;

HAZLETON       SUNNY     73  34  23 W8        30.35F
WILKES BARRE   SUNNY     78  37  22 SW10G18   30.28F

$$
DEZALL-MDZ008-012-015-019-020-241900-
DELAWARE AND EASTERN MARYLAND

CITY           SKY/WX    TMP DP  RH WIND       PRES   REMARKS
WILMINGTON     MOSUNNY   77  52  41 VRB7      30.33F
6HR MIN TEMP:  57; 6HR MAX TEMP:  77;

DOVER          SUNNY     78  58  50 SW10G16   30.31F
GEORGETOWN     SUNNY     79  52  38 SW16G23   30.34F
6HR MIN TEMP:  59; 6HR MAX TEMP:  79;

EASTON         MOSUNNY   77  57  50 SW12      30.38
PATUXENT       MOSUNNY   76  59  55 VRB5      30.34F
OCEAN CITY     SUNNY     69  47  45 S12G23    30.37F
WALLOPS ISLAND SUNNY     69  46  43 S16       30.39F
CAMBRIDGE      SUNNY     77  55  47 S7        30.35S
SALISBURY      SUNNY     78  53  41 SW12      30.35F

$$
PAZ001-021-NYZ056-072-MDZ011-DCZ001-241900-
OTHER NEARBY LOCATIONS

CITY           SKY/WX    TMP DP  RH WIND       PRES   REMARKS
HARRISBURG     PTSUNNY   78  46  32 S5        30.30F
STATE COLLEGE  MOSUNNY   79  45  29 W10       30.30F
WILLIAMSPORT   MOSUNNY   78  44  29 SW7       30.27F
BINGHAMTON     PTSUNNY   72  39  30 W9        30.29F
NEW YORK CITY  PTSUNNY   80  38  22 VRB5      30.30F
BALTIMORE      MOSUNNY   78  53  41 VRB5      30.32F
WASHINGTON DC  PTSUNNY   79  59  50 S9        30.33F

$$



USA.gov is the U.S. government's official web portal to all federal, state and local government web resources and services.